Location: Bienfait
(49.1431°N, 102.8077°W)
Time: 16:17:12
(UTC+00:00)

Envisat - Pass Details

Date: 05 February 2022
Orbit: 764 x 765 km, 98.2° (Epoch: 15 May)

Event Time Altitude Azimuth Distance (km) Brightness Sun altitude
Rises 11:25:45 0° 17° (NNE) 3,244 6.6 -28.1°
Reaches altitude 10° 11:28:08 10° 23° (NNE) 2,314 5.8 -27.7°
Maximum altitude 11:33:07 52° 100° (E) 951 3.7 -26.9°
Drops below altitude 10° 11:38:03 10° 176° (S) 2,298 5.4 -26.1°
Sets 11:40:24 0° 181° (S) 3,220 6.2 -25.7°
